This demonstration page uses our WeatherBlox Daily Observations layout. Learn more.

Left ArrowRight Arrow

Hourly Observations for February 18, 2017

Temp ( °F °C ) Dew Point ( °F °C ) Humidity (%) Winds ( mph kmh ) Pressure ( in mb ) Visibility ( mi km ) Precip ( " mm )
12:53 am 00:53 Clear 28 -2.2 25 -3.9 88 88 ENE 6 9 29.66 1004 10 16 0.00 0.00
1:53 am 01:53 Clear 28 -2.2 25 -3.9 88 88 ENE 8 13 29.64 1004 10 16 0.00 0.00
2:53 am 02:53 Clear 30 -1.1 27 -2.8 88 88 E 5 7 29.62 1003 10 16 0.00 0.00
3:53 am 03:53 Mostly Clear 32 0 27 -2.8 82 82 ENE 9 15 29.61 1003 10 16 0.00 0.00
4:53 am 04:53 Partly Cloudy 31 -0.6 27 -2.8 85 85 ENE 13 20 29.61 1003 10 16 0.00 0.00
5:53 am 05:53 Cloudy 31 -0.6 27 -2.8 85 85 ENE 13 20 29.62 1003 10 16 0.00 0.00
6:53 am 06:53 Cloudy 32 0 28 -2.2 85 85 ENE 12 19 29.63 1003 10 16 0.00 0.00
7:53 am 07:53 Cloudy 32 0 29 -1.7 88 88 ENE 9 15 29.64 1004 10 16 0.00 0.00
8:53 am 08:53 Cloudy 33 0.6 30 -1.1 89 89 E 17 28 29.62 1003 10 16 0.00 0.03
9:53 am 09:53 Cloudy 37 2.8 32 0 82 82 E 13 20 29.60 1002 10 16 0.00 0.00
10:53 am 10:53 Cloudy 41 5 32 0 70 70 E 13 20 29.60 1002 10 16 0.00 0.00
11:53 am 11:53 Cloudy 41 5 31 -0.6 67 67 E 18 30 29.59 1002 10 16 0.00 0.00
12:53 pm 12:53 Mostly Cloudy 44 6.7 32 0 63 63 ENE 16 26 29.57 1001 10 16 0.00 0.00
1:53 pm 13:53 Mostly Sunny 48 8.9 33 0.6 56 56 E 16 26 29.53 1000 10 16 0.00 0.00
2:53 pm 14:53 Sunny 48 8.9 34 1.1 58 58 E 18 30 29.52 1000 10 16 0.00 0.00
3:53 pm 15:53 Mostly Sunny 46 7.8 33 0.6 61 61 ENE 20 31 29.51 999 10 16 0.00 0.00
4:53 pm 16:53 Sunny 45 7.2 34 1.1 66 66 E 20 31 29.49 999 10 16 0.00 0.00
5:53 pm 17:53 Clear 42 5.6 34 1.1 73 73 E 20 31 29.49 999 10 16 0.00 0.00
6:53 pm 18:53 Mostly Clear 39 3.9 33 0.6 79 79 E 21 33 29.49 999 10 16 0.00 0.00
7:53 pm 19:53 Mostly Clear 38 3.3 33 0.6 83 83 ENE 17 28 29.48 998 10 16 0.00 0.00
8:53 pm 20:53 Cloudy 37 2.8 33 0.6 86 86 ENE 15 24 29.46 998 10 16 0.00 0.00
9:53 pm 21:53 Clear 36 2.2 32 0 86 86 ENE 17 28 29.44 997 10 16 0.00 0.00
10:53 pm 22:53 Cloudy 36 2.2 32 0 86 86 ENE 13 20 29.43 997 10 16 0.00 0.00
11:53 pm 23:53 Cloudy 35 1.7 32 0 89 89 E 23 37 29.42 996 10 16 0.00 0.00

Powered by AerisWeather